Time,TemperatureF,DewpointF,PressureIn,WindDirection,WindDirectionDegrees,WindSpeedMPH,WindSpeedGustMPH,Humidity,HourlyPrecipIn,Conditions,Clouds,dailyrainin,SoftwareType,DateUTC
2013-08-16 00:42:00,65.0,43.0,29.68,SSE,150,1.0,-999.0,44,0.00,,,-99.99,,2013-08-16 07:42:00,
2013-08-16 00:52:00,65.0,43.0,29.68,SSE,150,1.0,-999.0,44,0.00,,,-99.99,,2013-08-16 07:52:00,
2013-08-16 01:41:00,65.0,44.0,29.66,North,0,0.0,-999.0,47,0.00,,,-99.99,,2013-08-16 08:41:00,
2013-08-16 01:52:00,65.0,44.0,29.66,North,0,0.0,-999.0,47,0.00,,,-99.99,,2013-08-16 08:52:00,
2013-08-16 02:42:00,63.0,43.0,29.67,North,0,0.0,-999.0,48,0.00,,,-99.99,,2013-08-16 09:42:00,
2013-08-16 02:53:00,63.0,43.0,29.67,North,0,0.0,-999.0,48,0.00,,,-99.99,,2013-08-16 09:53:00,
2013-08-16 03:42:00,61.0,42.0,29.67,North,0,0.0,-999.0,50,0.00,,,-99.99,,2013-08-16 10:42:00,
2013-08-16 03:52:00,61.0,42.0,29.67,North,0,0.0,-999.0,50,0.00,,,-99.99,,2013-08-16 10:52:00,
2013-08-16 04:42:00,60.0,42.0,29.68,North,0,0.0,-999.0,51,0.00,,,-99.99,,2013-08-16 11:42:00,
2013-08-16 04:52:00,60.0,42.0,29.68,North,0,0.0,-999.0,51,0.00,,,-99.99,,2013-08-16 11:52:00,
2013-08-16 05:42:00,60.0,42.0,29.69,North,0,0.0,-999.0,51,0.00,,,-99.99,,2013-08-16 12:42:00,
2013-08-16 05:52:00,60.0,42.0,29.69,North,0,0.0,-999.0,51,0.00,,,-99.99,,2013-08-16 12:52:00,
2013-08-16 06:42:00,59.0,41.0,29.71,North,0,0.0,-999.0,51,0.00,,,-99.99,,2013-08-16 13:42:00,
2013-08-16 06:53:00,59.0,41.0,29.71,North,0,0.0,-999.0,51,0.00,,,-99.99,,2013-08-16 13:53:00,
2013-08-16 07:22:00,60.0,41.0,29.74,North,0,0.0,-999.0,50,0.00,,,-99.99,,2013-08-16 14:22:00,
2013-08-16 07:31:00,60.0,41.0,29.74,North,0,0.0,-999.0,50,0.00,,,-99.99,,2013-08-16 14:31:00,
2013-08-16 07:41:00,60.0,41.0,29.74,North,0,0.0,-999.0,50,0.00,,,-99.99,,2013-08-16 14:41:00,
2013-08-16 07:52:00,60.0,41.0,29.74,North,0,0.0,-999.0,50,0.00,,,-99.99,,2013-08-16 14:52:00,
2013-08-16 07:55:00,65.0,43.0,29.74,North,0,0.0,-999.0,44,0.00,,,-99.99,,2013-08-16 14:55:00,
2013-08-16 08:43:00,65.0,43.0,29.74,North,0,0.0,-999.0,44,0.00,,,-99.99,,2013-08-16 15:43:00,
2013-08-16 08:54:00,71.0,43.0,29.71,WSW,250,3.0,-999.0,36,0.00,,,-99.99,,2013-08-16 15:54:00,
2013-08-16 09:43:00,71.0,43.0,29.71,WSW,250,3.0,-999.0,36,0.00,,,-99.99,,2013-08-16 16:43:00,
2013-08-16 09:54:00,74.0,45.0,29.69,West,260,3.0,-999.0,35,0.00,,,-99.99,,2013-08-16 16:54:00,
2013-08-16 10:47:00,74.0,45.0,29.69,West,260,3.0,-999.0,35,0.00,,,-99.99,,2013-08-16 17:47:00,
2013-08-16 10:54:00,77.0,46.0,29.68,SSE,150,1.0,-999.0,33,0.00,,,-99.99,,2013-08-16 17:54:00,
2013-08-16 11:50:00,-999.0,-99.9,29.68,SSE,150,1.0,-999.0,33,0.00,,,-99.99,,2013-08-16 18:50:00,
2013-08-16 11:54:00,76.0,45.0,29.70,WSW,250,6.0,-999.0,33,0.00,,,-99.99,,2013-08-16 18:54:00,
2013-08-16 12:46:00,76.0,45.0,29.70,WSW,250,6.0,-999.0,33,0.00,,,-99.99,,2013-08-16 19:46:00,
2013-08-16 13:44:00,76.0,44.0,29.68,SSE,160,7.0,-999.0,32,0.00,,,-99.99,,2013-08-16 20:44:00,
2013-08-16 13:52:00,76.0,44.0,29.68,SSE,160,7.0,-999.0,32,0.00,,,-99.99,,2013-08-16 20:52:00,
2013-08-16 14:40:00,-999.0,-99.9,29.69,ESE,120,1.0,-999.0,-999,0.00,,,-99.99,,2013-08-16 21:40:00,
2013-08-16 14:53:00,76.0,45.0,29.69,ESE,120,1.0,-999.0,33,0.00,,,-99.99,,2013-08-16 21:53:00,
2013-08-16 15:43:00,77.0,42.0,29.71,WSW,240,3.0,-999.0,29,0.00,,,-99.99,,2013-08-16 22:43:00,
2013-08-16 15:52:00,77.0,42.0,29.71,WSW,240,3.0,-999.0,29,0.00,,,-99.99,,2013-08-16 22:52:00,
2013-08-16 16:23:00,75.0,42.0,29.70,North,0,0.0,-999.0,31,0.00,,,-99.99,,2013-08-16 23:23:00,
2013-08-16 16:32:00,75.0,42.0,29.70,North,0,0.0,-999.0,31,0.00,,,-99.99,,2013-08-16 23:32:00,
2013-08-16 16:42:00,75.0,42.0,29.70,North,0,0.0,-999.0,31,0.00,,,-99.99,,2013-08-16 23:42:00,
2013-08-16 16:52:00,75.0,42.0,29.70,North,0,0.0,-999.0,31,0.00,,,-99.99,,2013-08-16 23:52:00,
2013-08-16 17:21:00,75.0,41.0,29.71,SW,230,1.0,-999.0,30,0.00,,,-99.99,,2013-08-17 00:21:00,
2013-08-16 17:32:00,75.0,41.0,29.71,SW,230,1.0,-999.0,30,0.00,,,-99.99,,2013-08-17 00:32:00,
2013-08-16 17:42:00,75.0,41.0,29.71,SW,230,1.0,-999.0,30,0.00,,,-99.99,,2013-08-17 00:42:00,
2013-08-16 17:51:00,75.0,41.0,29.71,SW,230,1.0,-999.0,30,0.00,,,-99.99,,2013-08-17 00:51:00,
2013-08-16 18:42:00,73.0,45.0,29.71,WSW,240,2.0,-999.0,37,0.00,,,-99.99,,2013-08-17 01:42:00,
2013-08-16 18:52:00,73.0,45.0,29.71,WSW,240,2.0,-999.0,37,0.00,,,-99.99,,2013-08-17 01:52:00,
2013-08-16 19:42:00,70.0,40.0,29.73,South,170,1.0,-999.0,33,0.00,,,-99.99,,2013-08-17 02:42:00,
2013-08-16 19:51:00,70.0,40.0,29.73,South,170,1.0,-999.0,33,0.00,,,-99.99,,2013-08-17 02:51:00,
2013-08-16 20:43:00,69.0,39.0,29.71,South,170,3.0,-999.0,33,0.00,,,-99.99,,2013-08-17 03:43:00,
2013-08-16 20:53:00,69.0,39.0,29.71,South,170,3.0,-999.0,33,0.00,,,-99.99,,2013-08-17 03:53:00,
2013-08-16 21:44:00,69.0,41.0,29.69,North,0,0.0,-999.0,36,0.00,,,-99.99,,2013-08-17 04:44:00,
2013-08-16 21:53:00,69.0,41.0,29.69,North,0,0.0,-999.0,36,0.00,,,-99.99,,2013-08-17 04:53:00,
2013-08-16 22:42:00,68.0,41.0,29.68,South,170,1.0,-999.0,37,0.00,,,-99.99,,2013-08-17 05:42:00,
2013-08-16 22:51:00,68.0,41.0,29.68,South,170,1.0,-999.0,37,0.00,,,-99.99,,2013-08-17 05:51:00,
2013-08-16 23:42:00,67.0,38.0,29.69,South,170,1.0,-999.0,34,0.00,,,-99.99,,2013-08-17 06:42:00,
2013-08-16 23:51:00,67.0,38.0,29.69,South,170,1.0,-999.0,34,0.00,,,-99.99,,2013-08-17 06:51:00,